TimeEDT,TemperatureF,Dew PointF,Humidity,Sea Level PressureIn,VisibilityMPH,Wind Direction,Wind SpeedMPH,Gust SpeedMPH,PrecipitationIn,Events,Conditions,WindDirDegrees,DateUTC
12:53 AM,71.1,63.0,75,29.98,10.0,West,3.5,-,N/A,,Mostly Cloudy,260,2013-08-03 04:53:00
1:53 AM,69.1,64.0,84,29.98,10.0,SW,3.5,-,N/A,,Overcast,220,2013-08-03 05:53:00
2:53 AM,70.0,64.0,81,29.97,10.0,Calm,Calm,-,N/A,,Overcast,0,2013-08-03 06:53:00
3:53 AM,70.0,64.0,81,29.97,10.0,Calm,Calm,-,N/A,,Overcast,0,2013-08-03 07:53:00
4:53 AM,70.0,64.9,84,29.97,10.0,SSW,4.6,-,N/A,,Overcast,210,2013-08-03 08:53:00
5:53 AM,69.1,64.9,87,29.97,10.0,Calm,Calm,-,N/A,,Overcast,0,2013-08-03 09:53:00
6:53 AM,69.1,64.9,87,29.98,10.0,Calm,Calm,-,N/A,,Overcast,0,2013-08-03 10:53:00
7:53 AM,70.0,66.0,87,29.99,10.0,Calm,Calm,-,N/A,,Overcast,0,2013-08-03 11:53:00
8:53 AM,73.0,66.9,81,29.98,10.0,Calm,Calm,-,N/A,,Partly Cloudy,0,2013-08-03 12:53:00
9:53 AM,73.9,66.9,79,29.99,10.0,SW,6.9,-,N/A,,Mostly Cloudy,220,2013-08-03 13:53:00
10:53 AM,75.9,66.9,74,29.98,10.0,West,4.6,-,N/A,,Overcast,270,2013-08-03 14:53:00
11:53 AM,77.0,66.9,71,29.99,10.0,Variable,3.5,-,N/A,,Overcast,0,2013-08-03 15:53:00
12:53 PM,81.0,66.9,62,29.99,10.0,Variable,4.6,-,N/A,,Mostly Cloudy,0,2013-08-03 16:53:00
1:53 PM,81.0,68.0,65,29.98,10.0,SW,12.7,17.3,N/A,,Scattered Clouds,230,2013-08-03 17:53:00
2:53 PM,81.0,69.1,67,29.98,10.0,WSW,6.9,-,N/A,,Mostly Cloudy,240,2013-08-03 18:53:00
3:53 PM,82.9,69.1,63,29.97,10.0,WSW,8.1,-,N/A,,Mostly Cloudy,240,2013-08-03 19:53:00
4:53 PM,82.9,70.0,65,29.96,10.0,West,6.9,-,N/A,,Partly Cloudy,260,2013-08-03 20:53:00
5:53 PM,82.0,70.0,67,29.95,9.0,West,5.8,-,N/A,,Mostly Cloudy,270,2013-08-03 21:53:00
6:53 PM,81.0,69.1,67,29.96,10.0,North,8.1,-,N/A,,Mostly Cloudy,360,2013-08-03 22:53:00
7:53 PM,78.1,69.1,74,29.96,10.0,NNE,4.6,-,N/A,,Partly Cloudy,20,2013-08-03 23:53:00
8:53 PM,75.9,70.0,82,29.97,10.0,Variable,3.5,-,N/A,,Clear,0,2013-08-04 00:53:00
9:53 PM,72.0,69.1,91,29.99,9.0,Calm,Calm,-,N/A,,Partly Cloudy,0,2013-08-04 01:53:00
10:53 PM,72.0,69.1,91,30.02,9.0,Calm,Calm,-,N/A,,Scattered Clouds,0,2013-08-04 02:53:00
11:53 PM,70.0,68.0,93,30.03,8.0,Calm,Calm,-,N/A,,Clear,0,2013-08-04 03:53:00